Theta_e
317 317 318 319 319 318 317 315 314 313 312 312 312 312 313 313 312 306 305 305 302 299 300 302 303 302 300 301 296 298 297 298 300 299 302 304 302 306 303 306 306 305 304 304 303 301 298 317 317 310 315 321 321 321
317 317 317 318 318 318 317 316 314 313 312 312 312 312 312 312 312 306 302 306 306 300 299 302 305 306 305 304 301 299 297 297 301 299 300 298 297 299 300 298 312 306 310 308 308 309 315 319 318 321 322 321 321 322
317 317 317 317 317 318 317 316 315 314 313 312 312 312 312 312 311 310 306 305 301 298 300 300 301 305 306 306 307 299 300 302 301 302 300 298 295 300 294 299 304 311 314 312 310 314 316 316 319 321 323 322 322 324
316 317 317 317 317 317 317 317 316 315 314 312 312 312 311 312 311 310 306 304 303 300 298 301 306 306 309 307 307 306 304 301 301 303 299 297 295 301 297 300 302 306 313 312 312 315 316 316 319 320 319 318 314 324
314 315 316 316 316 317 317 317 316 315 314 313 312 312 311 311 311 307 306 306 306 302 298 300 304 305 306 305 304 306 304 302 301 299 296 295 299 298 300 298 297 303 302 302 300 311 310 312 312 316 313 313 313 323
311 313 314 315 315 316 317 317 316 316 314 313 312 312 311 310 308 303 302 306 307 306 299 294 302 301 303 304 302 302 303 302 301 298 297 299 301 299 296 294 301 303 304 305 306 312 310 311 314 313 312 313 313 316
308 309 311 313 315 315 316 316 316 315 314 313 313 312 311 310 308 300 297 305 305 304 298 295 296 302 302 302 304 302 301 301 301 299 297 298 299 299 296 294 300 303 305 305 308 308 307 309 306 309 309 310 312 318
306 307 309 311 313 314 315 316 316 315 314 313 312 311 310 309 307 302 307 307 307 302 300 294 295 297 301 299 300 302 301 298 298 298 298 297 299 299 293 299 302 303 306 306 307 309 308 309 308 308 310 310 315 318
306 306 307 308 311 313 314 315 316 315 314 312 311 310 306 302 297 302 311 309 306 301 297 295 292 292 301 299 299 302 300 296 301 296 297 298 295 293 298 301 302 304 304 304 306 306 307 307 307 308 311 314 315 316
306 306 307 308 310 312 313 314 315 314 312 311 306 301 297 301 310 308 303 301 299 299 297 295 298 294 297 299 300 299 300 298 295 298 302 296 295 302 304 307 309 310 311 312 304 302 304 305 306 310 314 317 317 317
305 305 306 307 308 311 312 314 314 311 308 303 298 297 305 311 304 299 295 294 296 293 297 297 296 294 300 295 296 301 298 298 292 296 296 295 296 302 305 307 309 311 312 313 313 314 314 314 314 318 319 321 321 321
306 306 306 306 307 309 312 313 310 305 302 302 302 304 304 301 297 293 292 294 292 292 296 294 296 296 299 301 298 300 296 297 290 301 296 293 300 305 305 305 307 310 311 311 313 313 314 314 316 319 321 322 323 324
305 306 306 306 307 309 311 312 309 307 307 304 301 297 296 295 289 288 287 290 292 296 297 296 297 299 299 299 299 298 293 291 299 294 292 297 304 305 306 307 307 309 309 309 310 313 314 315 317 318 320 323 323 323
307 307 306 306 307 308 310 310 308 308 305 298 294 289 290 288 290 294 294 294 298 298 298 298 300 299 300 297 299 293 296 297 291 289 291 301 304 305 306 308 308 306 307 308 309 310 312 313 315 319 320 322 321 322
307 307 306 306 307 309 311 309 308 305 302 295 294 288 289 295 296 297 298 297 298 299 298 297 298 299 297 295 297 296 292 288 291 291 298 302 305 306 307 307 306 306 306 307 308 309 311 313 314 316 319 321 321 324
306 307 306 307 308 311 309 307 305 303 300 297 295 292 293 293 295 296 296 296 299 298 298 298 296 294 293 295 293 292 291 289 296 301 305 305 305 306 306 307 307 305 306 307 308 309 311 313 314 315 318 319 321 324
306 304 310 309 310 309 307 303 300 297 296 293 292 296 295 293 294 296 296 297 300 297 295 297 292 292 298 293 292 297 293 295 302 305 306 306 304 305 305 304 304 303 304 306 309 311 312 315 316 315 316 320 325 324
304 308 311 310 307 305 303 301 297 295 291 293 291 294 294 297 296 297 297 298 298 297 297 295 299 294 292 290 292 298 301 303 308 307 305 304 304 304 304 304 305 306 306 307 309 312 314 314 314 316 321 324 323 321
307 310 309 308 305 301 296 296 298 290 292 295 296 296 295 297 298 299 299 299 300 300 299 297 294 292 293 297 297 299 300 301 300 301 303 305 305 305 306 307 308 309 309 310 312 313 313 316 317 319 322 323 320 320
310 309 308 307 305 298 293 294 299 294 291 295 296 294 296 297 298 298 298 298 296 296 293 292 293 296 297 300 303 303 303 302 301 299 300 303 305 306 307 309 310 311 313 314 314 308 315 317 320 323 324 320 319 318
307 306 307 305 302 301 297 295 293 294 294 292 297 296 297 297 296 297 296 298 295 294 294 298 298 300 303 304 303 302 302 303 301 302 302 303 308 310 311 312 313 313 313 312 313 315 311 317 323 323 320 321 322 323
304 307 302 303 298 298 296 299 297 298 296 297 295 296 295 295 297 297 300 296 296 298 300 301 302 304 304 304 306 308 309 309 309 308 305 306 306 307 308 311 312 312 314 314 317 314 319 321 322 321 320 318 317 318
304 303 300 298 293 292 291 297 293 295 291 293 296 295 296 298 300 302 299 302 303 306 307 308 308 309 307 308 308 308 308 308 307 308 309 308 310 311 311 312 313 312 314 317 318 320 318 311 314 319 318 319 319 316
304 297 293 292 293 290 295 293 295 294 294 294 294 294 296 299 302 300 298 302 304 308 308 307 307 305 306 307 306 307 309 313 316 318 315 311 310 312 314 314 315 317 319 320 319 318 319 318 312 320 320 319 318 317
291 291 292 288 294 291 291 292 293 292 291 294 293 295 297 301 298 298 298 302 305 304 305 305 305 306 304 305 307 310 316 319 315 313 313 315 314 314 313 315 317 319 323 320 319 320 319 321 322 321 319 317 317 317
288 293 290 292 292 291 292 290 291 292 293 292 295 299 302 300 297 296 300 303 303 304 304 304 305 304 305 308 308 311 316 323 319 314 316 318 318 316 316 317 318 319 326 326 321 319 320 319 317 316 316 314 306 318
287 291 294 297 296 295 295 296 298 296 293 293 296 297 298 294 295 301 304 305 304 306 307 308 307 306 306 308 313 324 324 326 324 321 323 322 323 325 326 323 323 324 326 323 321 321 318 317 317 317 318 319 319 318
295 294 291 295 294 297 294 294 293 292 294 298 299 295 295 296 298 303 304 307 307 308 308 309 310 312 313 317 326 327 326 327 327 326 326 326 328 329 329 327 326 306 322 322 320 320 320 319 319 319 318 318 318 319
294 297 296 294 295 297 296 294 294 296 299 301 298 296 299 304 305 304 305 307 308 308 307 309 320 325 328 327 326 327 328 326 324 321 320 321 322 322 326 325 324 323 322 319 300 312 320 319 320 320 320 320 320 319
293 298 295 294 293 293 297 299 298 300 302 304 304 304 304 303 305 308 307 307 307 308 312 316 323 326 323 324 322 321 323 327 328 327 324 322 322 325 325 324 323 323 322 320 317 315 303 316 313 321 320 319 317 316
297 296 294 295 294 298 300 301 302 302 303 304 305 302 300 303 307 310 309 310 312 319 321 325 326 325 323 323 324 325 320 322 327 327 327 325 326 326 325 325 324 323 322 320 319 319 318 319 320 320 320 320 318 314
297 296 296 294 295 300 301 300 301 302 303 302 302 304 303 303 302 308 314 318 320 319 314 322 324 324 327 325 324 324 303 321 325 326 326 325 325 324 324 324 324 324 323 321 320 320 320 320 320 320 319 319 319 319
296 297 299 297 297 298 302 301 301 301 303 303 304 303 304 304 305 311 319 322 321 320 320 324 329 329 328 326 321 316 310 317 307 299 300 303 305 312 322 324 324 323 322 321 321 321 321 321 320 319 319 320 319 319
Wind_Speed
10 13 11 11 11 11 10 8 7 7 8 8 9 10 10 11 13 4 2 4 3 2 6 6 4 5 3 3 3 3 5 4 2 3 3 1 4 1 4 3 3 5 4 4 2 5 9 3 8 3 5 5 12 8
12 11 13 12 12 12 11 10 9 7 7 8 8 8 8 8 9 3 1 2 2 4 5 3 7 9 6 5 4 3 4 2 2 1 2 2 3 3 4 5 3 5 5 3 5 2 4 5 7 5 6 9 8 10
13 12 12 12 12 13 12 12 11 10 9 8 7 8 8 7 6 4 2 2 1 3 5 4 4 3 5 12 13 4 3 3 3 3 2 2 7 2 5 7 6 4 3 4 3 3 6 4 4 5 5 8 13 13
12 13 13 13 13 13 14 14 14 12 11 9 8 7 7 7 6 5 2 1 1 0 4 2 1 5 1 5 9 17 4 2 3 0 3 4 5 6 5 5 6 4 4 4 7 9 9 6 7 3 6 11 14 11
12 14 14 14 14 14 15 16 15 14 12 11 9 8 6 5 5 3 2 3 2 3 4 6 10 2 4 4 7 10 12 7 3 3 5 5 4 4 6 4 12 9 13 10 12 9 5 7 10 8 9 10 14 12
12 13 14 14 15 15 15 16 16 16 15 13 11 9 7 4 3 2 2 3 3 2 4 5 3 3 4 6 6 7 8 6 4 4 5 4 5 4 8 10 9 16 19 17 18 15 13 15 9 13 13 13 13 16
17 16 14 14 15 15 15 16 17 17 17 15 12 9 6 3 1 3 2 2 4 2 3 6 4 1 4 4 1 2 5 3 4 4 5 6 7 7 11 20 12 11 15 18 18 13 14 17 9 9 11 13 14 14
17 15 15 14 15 15 15 16 17 18 17 14 11 8 5 4 4 5 2 13 4 1 1 4 5 4 2 1 2 1 3 3 6 4 3 5 4 6 10 14 15 17 20 20 17 16 19 16 12 12 14 11 12 12
17 17 17 17 16 15 14 15 16 16 16 14 9 5 2 2 3 0 4 12 3 2 3 3 3 3 3 0 2 2 1 4 1 4 4 3 5 8 8 8 10 10 11 16 19 22 23 21 17 15 11 13 12 12
17 17 17 16 15 15 13 14 13 15 19 16 4 3 3 4 10 12 1 3 2 3 3 5 3 5 2 2 1 3 0 3 4 3 1 5 8 11 4 5 7 10 10 10 13 16 16 16 14 12 11 9 10 11
17 17 17 16 15 14 13 12 10 23 14 2 5 3 1 9 2 1 2 3 4 4 5 5 8 6 3 4 3 2 2 2 4 2 4 5 5 3 2 5 6 8 8 9 9 8 9 8 8 6 9 10 10 12
16 17 17 16 15 14 14 10 28 8 6 5 5 4 2 2 2 3 4 3 6 6 5 5 4 6 2 2 3 3 3 3 8 2 4 6 3 6 4 2 7 8 10 11 10 10 11 9 8 9 10 11 12 14
18 18 17 16 16 14 14 18 23 25 14 2 2 3 4 3 4 8 9 6 5 5 6 6 4 3 3 3 4 3 6 7 4 5 6 4 7 6 5 0 7 10 12 12 13 12 11 12 11 10 13 12 13 15
19 18 16 16 15 14 14 27 27 17 5 2 5 6 6 6 8 8 6 3 4 3 5 4 2 4 3 4 3 5 5 4 6 7 8 4 6 3 4 4 7 13 18 16 15 13 13 11 13 12 12 11 12 15
17 18 16 16 16 16 16 29 20 3 3 4 4 7 9 6 3 2 4 2 3 2 4 3 1 2 3 4 5 4 5 8 8 7 4 3 8 3 4 4 7 11 16 17 15 14 15 15 12 14 11 12 13 15
16 15 12 17 16 14 30 21 4 2 1 4 6 4 3 3 6 6 5 5 4 4 3 2 2 3 7 5 6 9 6 10 5 5 3 5 3 2 8 10 12 15 18 20 17 16 16 15 14 14 14 13 13 10
12 5 7 19 16 30 25 5 3 4 4 5 5 5 5 3 4 2 4 5 6 5 4 3 6 10 1 6 7 7 9 10 2 4 5 2 5 12 16 19 21 22 20 19 17 16 16 13 13 12 13 12 7 5
5 4 9 24 23 12 2 2 3 5 8 5 5 5 4 5 3 4 4 4 5 5 4 5 3 8 8 8 14 11 9 7 5 6 7 8 13 16 17 21 19 13 13 14 13 15 13 13 12 10 11 6 4 3
4 8 32 29 11 6 3 3 2 4 6 2 4 3 2 4 6 8 6 6 6 2 3 3 10 9 14 12 16 15 14 11 12 11 11 13 13 15 16 16 12 10 9 10 12 9 9 11 10 6 5 5 3 4
15 28 27 15 5 4 4 2 1 2 4 3 3 4 3 4 2 5 8 7 7 4 7 8 11 13 11 11 12 13 13 13 11 12 14 12 9 12 13 11 5 6 6 7 7 7 8 8 8 5 5 5 5 6
13 14 13 3 2 3 2 4 3 2 2 4 2 3 4 3 5 6 5 8 6 6 8 11 13 14 15 15 15 14 17 14 16 15 15 13 7 5 6 5 6 5 4 4 5 6 7 6 2 5 6 6 6 6
6 8 3 3 3 2 1 1 1 1 3 1 2 3 4 4 4 4 4 5 6 9 8 9 11 11 12 14 14 16 20 22 18 13 12 11 10 7 6 5 5 5 5 5 4 2 1 4 5 6 7 7 8 6
10 4 3 3 3 1 2 0 2 4 4 3 2 4 4 3 3 3 5 5 5 4 3 3 6 10 16 21 20 20 18 18 13 10 7 7 6 5 4 5 5 4 3 3 2 2 4 7 7 8 8 8 8 9
6 4 2 3 4 4 3 4 3 3 3 3 3 4 3 3 2 4 5 4 2 2 2 8 10 13 14 15 11 12 11 9 4 1 6 8 7 6 6 5 4 4 3 4 5 6 6 7 9 9 11 13 12 11
5 4 4 4 4 4 5 5 5 4 4 4 3 4 3 2 3 4 3 3 2 1 6 10 10 9 11 12 10 10 12 4 4 7 7 9 10 8 7 5 4 4 5 7 8 10 11 11 11 12 14 13 14 14
3 5 6 8 5 4 5 5 6 6 3 3 5 2 2 3 4 5 3 1 1 3 9 10 11 13 13 8 9 9 7 4 6 8 8 8 9 10 11 10 7 6 5 5 10 12 13 13 14 16 14 13 13 16
3 4 3 1 1 2 3 4 2 2 3 3 2 2 2 4 5 2 2 1 5 9 11 11 10 10 9 11 9 6 5 5 7 8 7 7 8 7 7 10 12 9 9 10 10 13 15 16 15 14 14 13 13 13
1 3 3 4 3 3 3 1 1 3 3 1 1 3 3 3 3 2 2 4 10 12 12 11 9 8 7 6 5 3 6 7 12 12 11 10 8 7 8 8 9 11 10 10 12 12 12 12 13 14 14 13 12 11
2 1 2 3 4 4 3 3 2 2 2 2 1 2 3 2 3 7 11 10 11 9 9 7 6 6 4 2 3 3 4 5 11 18 17 12 10 8 9 10 10 9 9 10 11 11 15 13 13 12 12 10 8 7
2 3 2 2 3 4 3 5 2 2 2 2 2 3 2 5 7 9 11 8 7 6 5 5 5 5 5 5 6 8 6 4 5 10 13 12 10 9 9 9 10 10 10 10 11 12 15 13 11 9 9 9 8 8
1 2 2 3 3 3 3 2 2 1 2 4 4 3 6 5 5 3 5 4 5 4 3 4 5 7 7 7 6 7 7 6 9 12 11 10 9 9 9 9 8 9 10 12 12 12 12 10 9 10 10 10 10 9
3 4 2 3 3 3 1 2 2 2 2 3 2 3 2 2 4 3 2 2 3 4 4 5 6 7 7 4 4 4 3 4 7 9 11 9 8 9 9 8 9 9 11 12 12 12 13 11 8 7 8 8 8 8
3 3 4 3 2 2 2 2 3 3 3 2 3 4 3 2 3 3 2 2 2 3 3 3 4 4 6 6 6 5 5 5 5 8 11 11 11 10 8 8 8 10 12 11 10 10 10 8 6 5 6 7 8 8
Wind_Direction
271 280 270 258 246 240 240 250 264 284 302 320 335 351 2 7 13 13 59 11 348 283 271 219 224 204 176 210 261 9 276 184 246 231 255 236 251 231 268 269 257 249 237 215 190 230 250 27 123 224 326 20 309 334
256 260 273 266 251 241 233 229 232 250 273 294 315 330 345 359 5 20 21 42 347 238 298 287 270 273 259 277 275 210 323 284 283 233 220 281 254 244 274 257 178 246 233 284 234 272 23 344 323 316 290 282 307 315
256 254 255 259 256 242 233 230 224 225 237 257 283 305 323 339 357 27 322 324 258 289 269 268 227 147 204 225 232 235 212 248 182 353 324 299 254 238 242 234 257 232 174 245 271 238 227 294 291 275 290 306 329 313
268 259 257 255 254 244 235 230 226 222 220 231 250 273 299 319 332 346 303 142 259 330 292 280 18 255 213 208 212 217 239 98 83 300 285 261 248 203 238 282 256 289 168 239 252 263 276 252 226 260 319 311 316 332
290 279 266 260 256 247 237 232 225 219 216 222 231 250 270 297 329 323 242 215 245 310 302 285 306 258 266 247 236 222 222 235 258 243 223 239 251 247 231 267 240 221 242 239 254 269 261 256 306 296 297 304 315 303
288 287 281 270 261 255 245 235 223 215 209 211 220 229 248 274 349 285 252 154 199 240 287 296 356 265 303 291 254 218 207 202 209 203 217 224 243 246 251 252 246 248 245 251 256 255 253 275 279 290 290 290 299 298
283 284 285 285 271 262 254 240 227 215 206 201 201 213 223 222 225 250 326 68 138 198 288 290 283 284 307 304 222 159 167 187 216 227 227 243 232 205 253 261 263 272 262 249 247 260 255 249 253 298 297 299 294 283
283 285 286 283 283 274 261 249 234 216 202 187 185 191 213 222 258 276 239 192 171 92 267 275 277 288 8 282 259 58 218 199 206 241 218 234 252 221 251 258 252 253 241 250 249 240 247 261 280 282 293 278 276 280
273 273 273 278 278 276 270 259 243 216 178 159 159 151 109 192 217 358 92 138 147 286 272 228 269 296 353 320 275 231 274 258 110 248 239 254 259 231 260 292 299 299 292 291 280 265 259 253 275 282 267 272 268 277
270 272 276 272 273 271 270 264 246 181 142 130 113 170 214 205 130 140 119 135 186 207 226 249 215 260 307 338 304 287 129 279 282 253 276 236 251 277 303 316 306 300 299 291 280 268 255 249 248 251 267 274 275 282
269 265 271 272 271 271 266 256 191 125 110 138 163 198 67 136 148 171 164 209 175 233 213 232 216 235 162 245 261 244 302 258 262 252 257 234 234 151 2 324 327 324 330 317 303 299 289 282 252 263 273 277 284 280
270 266 262 264 267 266 264 252 152 130 146 169 124 110 122 165 117 196 210 178 216 240 193 206 202 202 229 230 236 196 253 239 252 340 249 252 168 165 188 349 353 347 337 342 335 319 305 299 295 284 283 285 290 296
271 268 261 256 256 257 256 189 157 121 114 148 112 125 150 151 186 205 192 201 214 201 195 182 177 188 163 215 235 228 235 241 311 236 241 247 166 175 183 79 5 358 346 335 326 321 308 295 283 278 281 280 290 296
265 261 257 248 250 248 271 158 146 140 117 158 147 172 208 185 227 200 208 187 198 198 169 170 154 202 169 198 225 240 229 237 246 230 231 210 179 114 244 287 10 349 331 319 319 313 303 296 287 286 275 287 299 301
259 256 254 244 243 241 193 154 144 89 143 146 166 214 213 238 235 212 205 212 173 137 148 150 203 235 198 245 220 245 230 238 232 229 208 163 131 251 307 308 325 334 322 310 310 306 297 293 288 284 297 304 304 298
265 271 247 233 229 238 152 140 94 92 148 161 206 218 204 237 230 211 199 217 174 169 136 183 220 231 228 229 210 216 232 229 231 217 182 156 164 214 271 276 290 303 293 289 292 286 288 289 299 299 302 299 295 280
258 250 221 199 198 143 136 109 115 185 171 209 228 222 229 269 244 222 214 196 157 171 188 178 212 220 189 233 226 218 226 245 215 172 175 145 274 278 277 267 264 264 260 261 267 271 275 283 289 284 284 293 281 235
231 246 201 143 127 110 78 94 134 178 204 203 217 206 198 229 222 216 211 164 159 187 168 222 256 224 232 230 231 236 248 253 232 206 213 249 264 264 263 271 278 268 247 245 245 257 267 275 271 268 272 260 197 165
186 174 142 144 125 102 126 150 200 213 219 215 232 229 223 248 233 241 218 190 200 180 201 211 237 239 230 249 262 266 269 274 274 266 263 254 253 255 261 269 276 266 241 225 237 247 257 255 258 259 266 186 157 138
178 155 149 129 70 102 113 136 233 227 209 217 210 202 215 226 213 216 221 200 181 183 203 227 232 242 255 259 266 276 280 283 292 287 276 270 252 248 248 247 239 244 241 224 231 232 249 252 249 220 176 145 133 133
132 136 126 113 82 88 133 150 190 222 225 229 188 200 243 208 229 219 223 166 180 216 232 234 256 262 265 270 273 287 287 280 266 259 269 275 266 246 251 231 222 249 236 224 230 233 227 244 156 128 129 122 115 118
105 122 100 39 68 74 89 135 269 144 230 291 229 224 249 236 222 204 132 189 224 230 229 250 260 281 284 284 280 272 277 283 279 271 253 252 258 253 240 227 220 221 215 215 226 234 251 111 115 113 113 113 111 124
99 59 62 63 98 141 202 196 223 203 228 204 200 236 227 231 220 138 240 221 243 232 221 253 268 279 278 284 286 282 278 276 274 269 242 207 209 203 196 200 199 208 202 186 189 161 105 102 106 112 116 119 125 128
61 72 102 150 185 187 170 202 217 228 219 223 215 254 239 224 178 228 249 259 230 90 356 307 298 298 298 294 293 301 303 289 273 36 115 136 142 155 160 157 160 175 159 130 119 114 118 115 119 130 137 139 137 130
106 182 172 188 198 197 203 192 196 203 238 197 215 241 244 206 246 247 241 260 95 100 302 297 298 296 293 295 299 309 317 360 65 92 109 121 125 121 121 133 130 111 127 122 124 129 133 139 137 136 136 135 132 129
154 176 185 188 166 202 200 192 198 210 210 211 226 248 235 240 248 245 240 343 286 305 312 313 312 313 308 304 303 318 327 57 87 100 115 134 136 135 134 132 125 113 120 135 136 136 134 134 133 130 120 116 116 123
154 181 187 252 214 204 228 238 235 213 219 242 245 242 236 247 249 248 33 294 310 317 309 297 294 289 286 297 309 338 46 71 98 107 119 123 122 132 133 135 125 126 142 138 135 134 132 131 129 128 127 127 125 129
357 187 190 156 202 231 274 257 162 217 235 212 227 244 256 257 280 356 248 298 302 307 301 296 283 266 266 272 311 45 90 114 117 114 103 86 83 96 99 98 104 102 115 120 122 121 121 120 123 126 126 124 127 133
224 186 199 183 221 227 227 228 235 233 221 198 297 303 277 294 275 292 294 300 295 298 297 300 322 341 344 36 63 81 119 142 135 120 110 112 110 99 111 117 119 113 114 104 68 108 120 120 121 117 113 109 108 117
226 187 221 217 227 221 226 188 221 221 197 216 259 280 279 273 274 280 283 288 287 288 280 285 311 0 13 40 68 70 53 58 100 117 117 113 111 120 117 115 113 110 110 108 108 105 97 102 101 110 116 122 122 123
223 203 209 237 263 250 243 251 252 232 219 229 208 235 266 288 292 265 262 266 259 272 303 10 23 31 39 40 48 77 73 39 86 93 97 110 117 115 114 113 111 115 117 122 129 131 133 137 131 128 133 139 143 145
201 231 262 227 246 259 287 239 251 251 254 221 211 216 274 255 269 271 268 294 356 12 359 10 21 21 17 40 63 76 97 101 109 113 112 108 106 112 115 115 118 123 129 132 138 145 152 154 148 132 126 137 153 157
230 219 241 263 268 270 231 238 242 252 224 233 215 200 223 264 300 322 344 332 329 308 332 5 8 10 24 44 70 84 74 72 62 83 95 103 118 125 126 126 129 133 136 139 146 152 156 143 136 137 137 150 163 171